Location: Caixon
(43.4106°N, 0.0273°E)
Time: 22:38:16
(UTC+00:00)

Meteor 1-23 Rocket - Pass Details

Date: 16 October 2021
Orbit: 841 x 884 km, 81.3° (Epoch: 07 December)

Event Time Altitude Azimuth Distance (km) Brightness Sun altitude
Exits shadow 04:16:13 21° 200° (SSW) 1,861 5.7 -22.3°
Maximum altitude 04:20:09 72° 281° (W) 916 4.1 -21.6°
Drops below altitude 10° 04:25:51 10° 6° (N) 2,511 6.8 -20.6°
Sets 04:28:18 0° 9° (N) 3,445 7.6 -20.1°
